www.pogodaiklimat.ru

Погода и климат >> Архив погоды >> Пакистан >> Badin


ПОГОДА в Badin

  • Прогноз погоды в Badin
  • Монитор погоды в Badin
  • Климат города

АРХИВ ПОГОДЫ в Badin

Время (UTC), дата Ветер
(напр.,м/с)
 
Видим.   Явления Облачность Т
(С)
Тd
(С)
f
(%)
Тe
(С)
Тes
(С)
Комфортность P
(гПа)
Po
(гПа)
Тmin
(С)
Tmax
(С)
R
(мм)
R24
(мм)
S
(см)
18 18.05 ЮЗ 2 4000 м ясно +30.0 +22.8 65 +40 +40 очень
душно
1004.3 1000.0
21 18.05 ЮЗ 2 4000 м ясно +27.5 +23.1 77 +37 +37 очень
душно
1003.3 1000.0
00 19.05 ЮЗ 2 4000 м 5/5 300 м
[St]
+27.0 +23.4 81 +37 +37 очень
душно
1001.8 1000.5
03 19.05 ЮЗ 3 10 км 5/5 300 м
[St]
+30.0 +24.3 72 +42 +45 опасность
перегрева
1003.9 1002.6 +26.5
06 19.05 ЮЗ 6 10 км ясно +35.0 +23.5 51 +46 +53 опасность
перегрева
1004.7 1005.0
09 19.05 ЮЗ 6 10 км ясно +38.0 +22.3 41 +47 +54 опасность
перегрева
1003.2 1003.0
12 19.05 ЮЗ 5 10 км ясно +37.0 +21.0 40 +44 +46 опасность
перегрева
1002.6 1001.7 +38.5
15 19.05 ЮЗ 5 4000 м ясно +32.0 +22.0 56 +41 +41 опасность
перегрева
1004.6 1005.0
18 19.05 ЮЗ 3 4000 м ясно +29.5 +23.0 68 +39 +39 очень
душно
1005.7 1000.0
21 19.05 ЮЗ 4 4000 м ясно +28.0 +22.9 74 +37 +37 очень
душно
1004.4 1004.0
00 20.05 ЮЗ 2 4000 м ясно +27.0 +22.3 75 +35 +35 очень
душно
1003.7 1002.4
03 20.05 ЮЗ 3 10 км 5/5 300 м
[St]
+30.0 +24.3 72 +42 +44 опасность
перегрева
1004.8 1003.5 +26.5
06 20.05 ЮЗ 3 10 км 3/0
[Ac trans]
+35.0 +23.7 52 +46 +61 опасность
перегрева
1005.1 1000.0
09 20.05 ЮЗ 5 10 км 8/0
[Ci fib]
+35.5 +23.0 49 +46 +54 опасность
перегрева
1001.9 1002.0
12 20.05 ЮЗ 3 2000 м пыль ясно +35.0 +22.6 49 +45 +48 опасность
перегрева
999.9 998.7 +37.1
15 20.05 ЮЗ 2 4000 м 3/0
[Ac trans]
+31.5 +22.9 60 +41 +41 опасность
перегрева
1001.6 1000.0
18 20.05 ЮЗ 3 4000 м ясно +29.5 +23.8 71 +40 +40 очень
душно
1003.1 1003.0
21 20.05 ЮЗ 2 4000 м ясно +28.0 +23.7 77 +38 +38 очень
душно
1001.8 1000.0
00 21.05 ЮЗ 3 4000 м 6/6 900 м
[St]
+27.0 +23.9 83 +37 +37 очень
душно
1000.5 999.8
03 21.05 ЮЗ 4 10 км 8/8 900 м
[St]
+30.0 +25.1 75 +43 +44 опасность
перегрева
1002.4 1001.1 +26.5
06 21.05 З 3 10 км 5/5 300 м
[St]
+34.5 +23.1 52 +45 +54 опасность
перегрева
1003.0 1000.0
09 21.05 З 3 10 км 3/3 300 м
[St]
+37.0 +22.8 44 +46 +58 опасность
перегрева
1000.5 1000.0
12 21.05 З 5 10 км 3/3 900 м
[St]
+36.0 +22.4 46 +45 +47 опасность
перегрева
999.0 999.0
15 21.05 З 5 4000 м ясно +32.0 +23.4 60 +43 +43 опасность
перегрева
1001.6 1002.0
18 21.05 ЮЗ 5 4000 м ясно +29.5 +24.5 75 +42 +42 опасность
перегрева
1003.8 1004.0
21 21.05 ЮЗ 2 4000 м ясно +27.5 +24.7 85 +39 +39 очень
душно
1002.0 1000.0
00 22.05 4000 м н/о +27.5 +24.7 85 +39 +39 очень
душно
1001.4 1000.1
03 22.05 ЮЗ 1 10 км 5/5 300 м
[St]
+30.5 +24.9 72 +44 +47 опасность
перегрева
1004.4 1003.1 +27.1
06 22.05 ЮЗ 5 10 км ясно +35.0 +22.9 50 +45 +55 опасность
перегрева
1005.3 1005.0
09 22.05 ЮЗ 3 10 км ясно +38.0 +22.3 41 +47 +64 опасность
перегрева
1003.9 1000.0
12 22.05 ЮЗ 4 10 км ясно +37.0 +21.0 40 +44 +47 опасность
перегрева
1002.9 1001.7 +38.5
15 22.05 ЮЗ 2 4000 м ясно +32.5 +22.4 55 +42 +42 опасность
перегрева
1005.0 1000.0
18 22.05 ЮЗ 2 4000 м ясно +30.0 +22.8 65 +40 +40 очень
душно
1006.8 1000.0
21 22.05 ЮЗ 2 4000 м ясно +28.0 +22.9 74 +37 +37 очень
душно
1005.6 1000.0
00 23.05 ЮЗ 3 4000 м ясно +27.0 +22.4 76 +35 +35 очень
душно
1004.6 1003.3
03 23.05 ЮЗ 3 10 км ясно +30.0 +24.3 72 +42 +47 опасность
перегрева
1005.9 1004.6 +26.5
06 23.05 ЮЗ 5 10 км ясно +35.0 +23.7 52 +46 +56 опасность
перегрева
1005.7 1006.0
09 23.05 ЮЗ 3 10 км ясно +38.0 +20.7 37 +44 +60 опасность
перегрева
1004.7 1000.0
12 23.05 ЮЗ 3 10 км ясно +37.5 +20.7 38 +44 +48 опасность
перегрева
1003.2 1002.0 +38.5
15 23.05 ЮЗ 3 4000 м ясно +33.0 +21.3 50 +41 +41 опасность
перегрева
1004.9 1005.0
18 23.05 ЮЗ 2 4000 м ясно +29.5 +23.0 68 +39 +39 очень
душно
1006.2 1000.0
21 23.05 ЮЗ 2 4000 м ясно +28.0 +23.7 77 +38 +38 очень
душно
1004.7 1000.0
00 24.05 ЮЗ 3 4000 м ясно +27.0 +23.4 81 +37 +37 очень
душно
1003.5 1002.2
03 24.05 З 1 10 км ясно +31.0 +25.4 72 +45 +52 опасность
перегрева
1004.6 1003.3 +26.5
06 24.05 ЮЗ 2 10 км ясно +37.5 +21.6 40 +45 +65 опасность
перегрева
1004.9 1000.0
09 24.05 ЮЗ 2 10 км ясно +39.5 +20.6 34 +46 +65 опасность
перегрева
1002.4 1000.0
12 24.05 ЮЗ 4 10 км ясно +38.5 +21.6 38 +46 +49 опасность
перегрева
1001.1 999.8 +40.0
15 24.05 З 4 4000 м ясно +33.0 +23.0 56 +43 +43 опасность
перегрева
1003.0 1003.0
18 24.05 ЮЗ 2 4000 м ясно +30.5 +23.5 66 +41 +41 опасность
перегрева
1004.4 1000.0
21 24.05 ЮЗ 2 4000 м ясно +28.5 +24.2 78 +40 +40 очень
душно
1003.2 1000.0
00 25.05 ЮЗ 3 4000 м 3/3 900 м
[St]
+28.0 +24.4 81 +39 +39 очень
душно
1002.0 1000.7
03 25.05 ЮЗ 2 10 км ясно +31.0 +25.4 72 +45 +51 опасность
перегрева
1003.0 1001.7 +27.5
06 25.05 ЮЗ 5 10 км ясно +36.0 +24.0 50 +47 +57 опасность
перегрева
1003.3 1003.0
09 25.05 ЮЗ 2 10 км ясно +39.0 +23.3 41 +49 +68 опасность
перегрева
1000.3 1000.0
12 25.05 ЮЗ 2 10 км ясно +38.5 +22.9 41 +48 +52 опасность
перегрева
998.7 997.5 +40.5
15 25.05 З 3 10 км ясно +33.0 +23.8 59 +45 +45 опасность
перегрева
1000.6 1000.0

 

Местоположение метеостанции Badin (Пакистан): широта 24.63 долгота 68.90 высота над уровнем моря 11 м.

В архиве по умолчанию представлена погода в Badin за последнюю неделю. Архивные данные за месяц целиком и за предыдущие месяцы, начиная с января 2011 года, Вы можете получить, выбрав интересующий диапазон дат из раскрывающегося списка и нажав кнопку "Ввод!".

Внимание! Время в таблицах - всемирное. Для получения местного времени необходимо прибавить поправку, которая в Badin равна 5 ч.

Смотрите также архив погоды в соседних городах и на ближайших метеорологических станциях:

Погода в Hyderabad Airport (Пакистан) (96 км)
Погода в Chhor (Пакистан) (133 км)
Погода в Naliya (Gujarat, Индия) (154 км)
Погода в Bhuj-Rudramata (Gujarat, Индия) (172 км)
Погода в Karachi (Пакистан) (181 км)
Погода в Nawabshah (Пакистан) (188 км)
Погода в Mandvi (Gujarat, Индия) (205 км)
Погода в Kandla (Gujarat, Индия) (209 км)
Погода в New Kandla (Gujarat, Индия) (226 км)
Погода в Okha (Gujarat, Индия) (240 км)

Пояснения к столбцам:

Ветер - указаны скорость ветра в м/с - средняя за 10 мин, порывы в срок и между сроками (в фигурных скобках) и направление, откуда дует ветер: С - северный, СВ - северо-восточный, В - восточный, ЮВ - юго-восточный, Ю - южный, ЮЗ - юго-западный, З - западный, СЗ - северо-западный.
Видимость - горизонтальная дальность видимости в метрах или километрах. При видимости от 1 до 10 км при отсутствии осадков обычно наблюдается дымка, при ухудшении видимости до 1 км и менее - туман. В сухую погоду видимость может ухудшаться дымом, пылью или мглою.
Явления - указаны атмосферные явления, наблюдавшиеся в срок или в последний час перед сроком; фигурными скобками обозначены явления, наблюдавшиеся между сроками (за 1-3 часа до срока); квадратными скобками обозначены град или гололедные отложения с указанием их диаметра в мм.
Облачность - указаны через наклонную черту общая и нижняя облачность в баллах и высота нижней границы облаков в метрах; квадратными скобками обозначены формы облаков: Ci - перистые, Cs - перисто-слоистые, Cc - перисто-кучевые, Ac - высококучевые, As - высокослоистые, Sc - слоисто-кучевые, Ns - слоисто-дождевые, Cu - кучевые, Cb - кучево-дождевые. Подробнее классификацию облаков см. в Атласе облаков (PDF).
T - Температура воздуха - температура, измеренная на высоте 2 м над землей.
Td - Температура точки росы - температура, при понижении до которой содержащийся в воздухе водяной пар достигнет насыщения.
f - Относительная влажность воздуха - влажноcть воздуха, измеренная на высоте 2 м над землей.
Te - Эффективная температура - температура, которую ощущает одетый по сезону человек в тени. Характеристика душности погоды. При расчете учитывается влияние влажности воздуха и скорости ветра на теплоощущения человека.
Tes - Эффективная температура на солнце - температура, которую ощущает человек, с поправкой на солнечный нагрев. Характеристика знойности погоды. Зависит от высоты солнца над горизонтом, облачности и скорости ветра. Ночью, в пасмурную погоду, а также при ветре 12 м/с и более поправка равна нулю.
P - Атмосферное давление - приведенное к уровню моря атмосферное давление.
Po - Атмосферное давление - измеренное на уровне метеостанции атмосферное давление.
Tmin - Минимальная температура - минимум температуры воздуха на высоте 2 м над землей.
Tmax - Максимальная температура - максимум температуры воздуха на высоте 2 м над землей.
R - Количество осадков - Количество выпавших осадков за период времени, мм. При наведении курсора мыши на число - период времени, за который выпало указанное количество осадков.
R24 - Количество осадков - Количество выпавших осадков за 24 часа, мм.
S - Снежный покров - Высота снежного покрова, см. При наведении курсора мыши на число - состояние снежного покрова и степень покрытия местности в баллах.